Погода в Рузаевке

Погода в Рузаевке : погода сейчас, прогноз погоды и архив. Всё, что Вы хотите узнать о погоде в Рузаевке!

Поиск расширенной информации на нашем сайте:

Другие новости

Новости СМИ2

Главная страница сайта

Новости сайта

02.10.2013

Напоминаем, что на нашем новом сайте вы можете получить высокодетализированные прогнозы погоды по пунктам России, СНГ и мира (включающие важные для авиации метеовеличины, такие как направление и скорость ветра, видимость, явления погоды, количество и форма облачности, нижняя и верхняя граница облачности), а также ознакомиться с разнообразными материалами по авиационной метеорологии и подборкой полезных ссылок на эту тему.

Сайт Метеоцентр.Азия посвящён разработке технологий оптимизации авиаметеорологического обслуживания, включая проектирование и перспективное создание нескольких автоматизированных авиаметеорологических систем:
- система выпуска высокодетальных прогностических карт явлений погоды для нижнего воздушного пространства по России и ближнему зарубежью;
- система верификации прогнозов TAF (выпускаемых синоптиками официальных АМСГ РФ и ближнего зарубежья) и AUTOTAF (выпускаемых сайтом Метеоцентр.Азия) - выявление ошибок, онлайн-сопоставление с фактической погодой METAR, автоматическое внесение коррективов в прогнозы при резком отклонении фактической погоды от прогноза, подсчёт оправдываемости прогнозов по элементам и в целом;
- система обработки, анализа и отображения авиаметеорологической информации для применения провайдерами метеорологической информации.

Рекомендуем: Самоделкин замена и ремонт кран.

Погода в Рузаевке - сегодня

Время (UTC), дата Ветер
(°,м/с) 
Видим.   Явления Облачность Т
(°С)
Тd
(°С)
f(%) Тe
(°С)
Pmin
(гПа)
dP
(гПа)
Po
(мм)
O2
(г/м3)
Тmin Tmax R s Состояние
почвы
18 24.06.17 340 (С) н/о    4/3 600 м кучево-дожд., верхняя 
[Cb calv|Ci fib]
+17.5 +12.5 72 +23  1007.1  1.7  736  276    +26.3       
21 24.06.17 140 (ЮВ) н/о    4/0 верхняя 
[Ci fib]
+11.2 +10 92 +14  1008.2  0.4  736  283           
00 25.06.17 тихо ()   20000 м    6/3 600 м кучево-дожд., средняя, верхняя 
[Cb calv|Ac trans|Ci fib]
+8.9 +7.4 90 +9  1009.1  0.7  737  286           
03 25.06.17 тихо ()   20000 м    4/0 средняя, верхняя 
[Ac trans|Ci fib]
+19.7 +13.7 68 +27  1007.8  -0.3  736  274           
06 25.06.17 140 (ЮВ) 20000 м    6/4 1000 м верхняя 
[Cu med, cong|Ci sp]
+24.4 +8 35 +24  1006.6  -0.8  736  271  +8.4         
09 25.06.17 170 (Ю) 20000 м    8/8 600 м кучево-дожд. 
[Cb calv]
+27.6 +9.1 31 +28  1004.7  -1.5  735  267           
12 25.06.17 170 (Ю) 20000 м    8/6 600 м кучево-дожд., верхняя 
[Cb calv|Ci sp]
+28.6 +9.9 31 +30  1002.9  -1.7  733  266           
15 25.06.17 180 (Ю) 20000 м    9/9 600 м кучево-дожд. 
[Cb calv]
+26.1 +9.1 34 +27  1002.5  -0.6  733  268    +29.1       
18 25.06.17 290 (З) н/о    8/8 600 м кучево-дожд. 
[Cb calv]
+20.7 +10.3 51 +23  1004.8  1.8  734  273    +29.1       
21 25.06.17 220 (ЮЗ) н/о    6/6 600 м кучево-дожд. 
[Cb calv]
+18.9 +11.9 64 +24  1005.4  0.4  734  274           
00 26.06.17 210 (ЮЗ) 20000 м    6/4 600 м кучево-дожд., верхняя 
[Cb calv|Ci sp]
+13.3 +9.4 77 +16  1007.4  1.4  736  281           
03 26.06.17 280 (З) 20000 м    4/0 средняя, верхняя 
[Ac trans|Ci sp]
+16.2 +7.7 57 +17  1008.1  736  279           
06 26.06.17 240 (ЮЗ) 20000 м    6/0 средняя, верхняя 
[Ac trans|Ci fib]
+19.9 +7 43 +21  1008.4  0.6  737  276  +12.8         
09 26.06.17 280 (З) 20000 м    6/3 1000 м средняя, верхняя 
[Cu hum|Ac trans|Ci fib]
+22 +6.4 36 +22  1008.5  0.3  737  274           
12 26.06.17 300 (СЗ) 20000 м    8/6 600 м кучево-дожд., верхняя 
[Cb calv|Ci fib]
+20.6 +6.2 39 +21  1009.4  0.7  737  275           
15 26.06.17 280 (З) 20000 м    8/4 600 м кучево-дожд., верхняя 
[Cb calv|Ci fib]
+20 +6.4 41 +20  1009.4  737  276    +22.5       
18 26.06.17 тихо ()   н/о    8/3 600 м кучево-дожд., средняя, верхняя 
[Cb calv|Ac trans|Ci fib]
+13.6 +7.3 66 +14  1011.3  1.2  738  282    +22.5       
21 26.06.17 140 (ЮВ) н/о    6/3 600 м кучево-дожд., средняя, верхняя 
[Cb calv|Ac trans|Ci fib]
+10.2 +6.8 79 +11  1012.2  0.6  739  286           
00 27.06.17 тихо ()   20000 м    4/0 верхняя 
[Ci fib]
+7.4 +5.6 88 +7  1013.4  0.9  740  289           
03 27.06.17 тихо ()   20000 м    3/0 верхняя 
[Ci fib]
+16.9 +9 60 +17  1013.4  0.9  740  279           
06 27.06.17 270 (З) 20000 м    ясно 
+22 +4 31 +22  1013.7  0.7  741  276  +6.9         
09 27.06.17 350 (С) 20000 м    3/3 1000 м 
[Cu hum]
+23.7 +7.1 34 +24  1013.4  -0.1  741  273           
12 27.06.17 350 (С) 20000 м    4/3 1000 м верхняя 
[Cu hum|Ci fib]
+25.3 +8.3 34 +25  1012.8  -0.5  740  272           
15 27.06.17 280 (З) 20000 м    4/0 средняя, верхняя 
[Ac trans|Ci fib]
+24.7 +8.7 36 +25  1012.7  -0.1  740  272    +25.8       
18 27.06.17 200 (Ю) н/о    ясно 
+18.1 +9.2 56 +19  1013.8  0.5  741  278    +25.8       
Время (UTC), дата Ветер
(°,м/с) 
Видим.   Явления Облачность Т
(°С)
Тd
(°С)
f(%) Тe
(°С)
Pmin
(гПа)
dP
(гПа)
Po
(мм)
O2
(г/м3)
Тmin Tmax R s Состояние
почвы

Для получения пояснительной информации подведите курсор к названию столбца.

ПОГОДА в Рузаевке - архив

Всё, что Вы хотите узнать о погоде в Рузаевке - удобно и подробно!

Выберите нужную дату (начиная с 1 января 2015* года) и нажмите кнопку "Найти".
Будут отображены архивные сводки погоды по пункту Рузаевка, начиная с указанной даты.


Отображать данные в формате CSV (для использования в таблицах Excel)


Внимание! Наш архив погоды предназначен исключительно для личного некоммерческого использования в познавательных целях. Если Вам необходимы официальные справки о состоянии погоды (для производственных, юридических, коммерческих и т.п. целей), обращайтесь в органы Росгидромета.

*Примечание: данная дата относится к архиву по метеостанциям СССР (Россия, СНГ, Балтия).
Архив по метеостанциям Зарубежной Европы и Азии (кроме Китая) хранится 10 дней, по другим регионам земного шара (Китай, Африка, Америка, Австралия, Океания) - 1 день.

Рузаевка - район местоположения метеостанции


Название, широта, долгота, высота метеостанции:
Рузаевка 52.8°ш. 67°д. 227 м над ур. моря [Казахстан]

Дополнительная информация

В oтличие oт бoльшинства пoгoдных сайтoв мы публикуем пoдрoбную метеoинфoрмацию в детальнoм прoфессиoнальнoм фoрмате.

Характеристики температуры и влажнoсти вoздуха измеряются на высoте 2 м в тени вдали oт зданий и деревьев.
Скoрoсть ветра измеряется на высoте 10 м (на урoвне рoста челoвека скoрoсть ветра ниже в 1.5-2 раза). Если метеoстанция нахoдится в гoрoде или в лесу, тo скoрoсть ветра занижена на 2-4 м/с пo сравнению с oткрытым местoм. Скoрoсть ветра над акватoриями крупных рек и oзёр, а также на вершинах хoлмoв на 2-5 м/с выше, чем в oбычных услoвиях.
Атмoсфернoе давление в разных тoчках местнoсти мoжет значительнo oтличаться oт давления на метеoстанции, в зависимoсти oт услoвий рельефа (при пoдъёме на 10 м давление пoнижается примернo на 1 мм рт.ст.).